Location: Normandy Village
(37.8755°N, 122.2655°W)
Time: 11:43:33
(UTC+00:00)

ATLAS 3B R/B - Pass Details

Date: 12 December 2019
Orbit: 1027 x 1168 km, 63.8° (Epoch: 16 January)

Event Time Altitude Azimuth Distance (km) Brightness Sun altitude
Rises 02:04:21 0° 310° (NW) 3,820 6.1 -14.3°
Reaches altitude 10° 02:07:55 10° 291° (WNW) 2,884 5.7 -14.9°
Maximum altitude 02:12:05 17° 253° (WSW) 2,407 5.7 -15.7°
Drops below altitude 10° 02:16:20 10° 215° (SW) 2,934 5.8 -16.5°
Sets 02:20:02 0° 197° (SSW) 3,915 6.1 -17.2°
